Location: *
(33.8649°S, 62.1526°E)
Time: 00:55:54
(UTC+00:00)

Daily predictions for brighter satellites

Satellite Brightness Start Highest point End
(mag) Time Altitude Azimuth Time Altitude Azimuth Time Altitude Azimuth
Cosmos 1606 4.2 00:00:16 10° S 00:03:58 38° E 00:07:36 10° NNE
STARLINK-1032 3.5 00:03:54 49° NW 00:04:59 89° SW 00:09:13 10° SE
STARLINK-1011 3.5 00:08:40 44° NW 00:09:56 80° SW 00:14:10 10° SE
STARLINK-1031 3.7 00:10:22 42° WNW 00:11:34 65° SW 00:15:44 10° SE
BREEZE-M DEB (TANK) 3.9 00:11:44 19° NNE 00:12:29 21° NE 00:14:21 10° E
STARLINK-1035 3.7 00:11:42 39° WNW 00:13:09 67° SW 00:17:28 10° SE
SL-16 R/B 4.3 00:12:03 10° SSW 00:14:53 13° WSW 00:15:32 13° WSW
STARLINK-1036 3.6 00:13:27 39° WNW 00:14:55 72° SW 00:19:08 10° SE
Cosmos 1689 Rocket 4.1 00:15:26 10° SE 00:18:07 29° E 00:20:45 10° NNE
BREEZE-M DEB (TANK) 3.1 00:20:03 25° N 00:20:03 25° N 00:21:23 10° NNE
FENGYUN 3A 3.7 00:14:05 10° NNE 00:19:31 86° ESE 00:25:00 10° SSW
STARLINK-1044 3.7 00:18:15 34° WNW 00:19:54 64° SW 00:24:06 10° SE
CZ-4B R/B 4.5 00:18:52 25° NNW 00:20:42 37° W 00:24:37 10° SSW
Cosmos 1500 Rocket 4.1 00:16:52 10° N 00:21:07 60° E 00:25:26 10° SSE
SAR-Lupe-4 4.3 00:19:20 10° S 00:22:37 33° WSW 00:23:12 31° W
Meteor PRIRODA 3.6 00:19:04 10° N 00:22:40 60° W 00:26:21 10° SSW
STARLINK-1027 4.1 00:22:00 29° W 00:23:49 50° SW 00:28:03 10° SE
Cosmos 292 Rocket 3.7 00:22:37 15° NNW 00:26:35 75° WSW 00:31:28 10° SSE
Cosmos 1515 Rocket 3.9 00:22:30 10° S 00:27:03 69° E 00:31:30 10° NNE
Cosmos 1605 Rocket 4.0 00:23:35 10° NNW 00:29:33 57° W 00:35:41 10° S
STARLINK-1037 4.0 00:27:38 26° WNW 00:29:41 52° SW 00:33:49 10° SE
COBE Rocket 4.0 00:24:50 10° SSE 00:29:50 87° ENE 00:34:56 10° N
SeaSat 1 3.6 00:26:02 10° S 00:30:05 26° WSW 00:32:10 19° W
NOSS 3-1 (C) 4.2 00:24:30 10° NNW 00:33:26 85° WSW 00:41:32 10° SSE
STARLINK-1059 4.1 00:32:35 23° WNW 00:34:52 47° SW 00:38:57 10° SSE
Meteor 2-3 Rocket 3.7 00:29:30 10° NNW 00:35:19 78° W 00:41:08 10° S
GPS 2-04 Rocket1 2.3 00:33:47 26° WNW 00:35:38 77° NNE 00:39:04 10° ESE
Cosmos 1743 Rocket 3.5 00:32:15 10° N 00:36:42 78° W 00:41:15 10° S
MOS 1-B 4.3 00:32:52 10° N 00:38:40 72° WNW 00:44:31 10° SSW
Cosmos 1992 Rocket 4.2 00:34:35 13° NW 00:39:06 52° WSW 00:44:13 10° S
STARLINK-1057 4.3 00:37:23 20° WNW 00:39:52 42° SW 00:43:54 10° SSE
Cosmos 1484 Rocket 3.5 00:37:26 10° NNW 00:41:00 31° W 00:44:33 10° SSW
SJ-12 4.1 00:37:16 10° N 00:41:18 52° W 00:45:24 10° SSW
Meteor 2-20 4.4 00:38:28 10° SSW 00:44:33 64° W 00:50:32 10° N
STARLINK-1034 4.4 00:42:09 18° W 00:44:51 38° SW 00:48:49 10° SSE
Helios 1A Rocket 4.5 00:42:29 10° NE 00:46:18 40° ESE 00:50:08 10° S
Cosmos 1633 3.3 00:43:24 10° N 00:46:55 55° E 00:50:29 10° SSE
Hubble Space Telescope 1.6 00:47:42 15° WNW 00:50:45 38° N 00:54:39 10° ENE
Cosmos 2369 Rocket 3.0 00:45:41 10° N 00:51:10 53° ENE 00:56:40 10° SSE
H-2A R/B 4.0 00:49:17 12° NW 00:51:30 17° W 00:54:19 10° SW
Cosmos 2228 Rocket 3.3 00:47:48 10° S 00:52:17 77° E 00:56:42 10° N
Cosmos 2297 4.3 00:47:38 11° NW 00:52:45 40° WSW 00:58:10 10° S
METEOR-M 4.4 00:47:45 10° N 00:52:51 45° W 00:58:02 10° SSW
PAYLOAD B 4.2 00:48:04 10° N 00:53:32 67° WNW 00:59:05 10° SSW
Abrixas rocket 4.3 00:54:40 10° NW 00:54:40 10° NW 00:54:57 10° NW
STARLINK-1067 4.5 00:52:27 10° NNW 00:56:29 49° NE 01:00:33 10° SE
Lacrosse 4 Rocket 3.3 00:54:30 11° W 00:56:40 15° SW 00:59:10 10° SSW
CZ-4B R/B 2.5 00:55:03 10° SSW 00:57:41 24° WSW 01:00:14 10° NW
Radarsat Rocket 4.2 00:51:30 10° NNE 00:57:56 84° ESE 01:03:56 10° SSW
Cosmos 2173 Rocket 4.1 00:52:03 10° N 00:58:10 85° E 01:04:21 10° S
STARLINK-1058 4.3 00:57:21 10° NNW 01:01:25 55° NE 01:05:32 10° SE
Cosmos 1782 3.1 00:57:47 10° S 01:01:52 74° E 01:05:53 10° NNE
Cosmos 1151 Rocket 4.1 00:58:50 10° SW 01:02:20 24° W 01:05:49 10° NW
SL-4 R/B 2.1 01:00:26 10° WSW 01:03:45 40° NW 01:07:13 10° NNE
ALOS 3.1 01:02:07 10° NNW 01:06:09 28° W 01:10:14 10° SW
STARLINK-1043 4.1 01:02:16 10° NNW 01:06:23 62° NE 01:10:33 10° SE
Cosmos 1833 Rocket 3.7 01:02:37 10° SW 01:07:02 24° WNW 01:11:25 10° NNW
Cosmos 968 Rocket 3.6 01:03:16 10° SSW 01:08:21 55° WNW 01:13:21 10° N
STARLINK-1065 4.0 01:07:01 10° NW 01:11:10 69° NE 01:15:21 10° SE
Cosmos 2082 Rocket 2.7 01:07:00 10° SW 01:12:10 36° WNW 01:17:16 10° NNW
Cosmos 1862 3.9 01:08:26 10° N 01:12:26 65° E 01:16:31 10° SSE
deb Kosmos-1763 4.0 01:11:37 10° SSW 01:15:18 83° WNW 01:18:55 10° NNE
Okean O Rocket 1.8 01:11:47 10° N 01:16:02 51° W 01:20:24 10° SSW
Cosmos 1459 Rocket 4.1 01:09:54 10° NNW 01:16:15 69° W 01:22:39 10° S
STARLINK-1063 3.8 01:12:08 10° NW 01:16:18 78° NE 01:20:30 10° SE
